Location: Asheville, NC
(35.6000°N, 82.5500°W)
Time: 11:54:52
(UTC-05:00)

OTV 5 (USA 277) - Pass Details

Date: 09 October 2017
Orbit: 404 x 417 km, 43.0° (Epoch: 07 September)

Event Time Altitude Azimuth Distance (km) Brightness Sun altitude
Rises 20:31:41 0° 248° (WSW) 2,342 ? -19.0°
Reaches altitude 10° 20:33:48 10° 250° (WSW) 1,481 ? -19.4°
Maximum altitude 20:37:09 70° 335° (NNW) 443 ? -20.1°
Enters shadow 20:37:20 67° 3° (N) 451 ? -20.1°
